Weather History for Greenville/Spartanburg, SC

Change the Weather History Date:

Friday, November 23, 2012

  Actual Average Record
Temperature  
Mean Temperature 52 °F 50 °F  
Max Temperature 71 °F 61 °F 75 °F (1940)
Min Temperature 33 °F 39 °F 19 °F (1970)
Degree Days  
Heating Degree Days 13 15  
Month to date heating degree days 298 269  
Since 1 July heating degree days 450 439  
Cooling Degree Days 0 0  
Month to date cooling degree days 0 0  
Year to date cooling degree days 1822 1710  
Growing Degree Days 2 (Base 50)    
Moisture  
Dew Point 38 °F    
Average Humidity 62    
Maximum Humidity 92    
Minimum Humidity 31    
Precipitation  
Precipitation 0.00 in 0.14 in 1.66 in (2001)
Month to date precipitation 0.90 2.74  
Year to date precipitation 33.05 42.12  
Snow  
Snow 0.00 in 0.00 in T in (1975)
Month to date snowfall 0.0 0.1  
Since 1 July snowfall T 0.1  
Since 1 September snowfall 0.0 0.1  
Snow Depth 0.00 in    
Sea Level Pressure  
Sea Level Pressure 30.03 in    
Wind  
Wind Speed 5 mph (West)    
Max Wind Speed 17 mph    
Max Gust Speed 22 mph    
Visibility 10 miles    
Events      
T = Trace of Precipitation, MM = Missing Value Source: NWS Daily Summary

Daily Weather History Graph

Daily Weather History Graph

Search for Another Location

Airport:

Trip Planner

Search our weather history database for the weather conditions in past years. The results will help you decide how hot, cold, wet, or windy it might be!

Date:

Astronomy

Nov. 23, 2012 Rise Set
Actual Time 7:11 AM EST 5:19 PM EST
Civil Twilight 6:43 AM EST 5:46 PM EST
Nautical Twilight 6:13 AM EST 6:17 PM EST
Astronomical Twilight 5:42 AM EST 6:47 PM EST
Moon 2:25 PM EST (11/23) 2:38 AM EST (11/23)
Length of Visible Light 11h 02m
Length of Day
10h 08m
Waxing Gibbous, 79% of the Moon is Illuminated
Nov 23
Waxing Gibbous
Nov 28
Full
Dec 6
Last Quarter
Dec 13
New
Dec 20
First Quarter

Hourly Weather History & Observations

Time (EST) Temp. Windchill Dew Point Humidity Pressure Visibility Wind Dir Wind Speed Gust Speed Precip Events Conditions
12:53 AM 44.1 °F - 34.0 °F 68% 30.14 in 10.0 mi Calm Calm - N/A   Clear
1:53 AM 42.1 °F - 34.0 °F 73% 30.14 in 10.0 mi Calm Calm - N/A   Clear
2:53 AM 37.0 °F - 33.1 °F 86% 30.13 in 10.0 mi Calm Calm - N/A   Clear
3:53 AM 37.9 °F - 34.0 °F 86% 30.12 in 10.0 mi Calm Calm - N/A   Clear
4:53 AM 39.9 °F - 34.0 °F 79% 30.12 in 10.0 mi Calm Calm - N/A   Clear
5:53 AM 36.0 °F - 33.1 °F 89% 30.12 in 10.0 mi Calm Calm - N/A   Clear
6:53 AM 39.0 °F - 35.1 °F 86% 30.11 in 10.0 mi Calm Calm - N/A   Clear
7:53 AM 37.0 °F 34.5 °F 34.0 °F 89% 30.11 in 10.0 mi NNE 3.5 mph - N/A   Clear
8:53 AM 48.0 °F - 39.0 °F 71% 30.10 in 10.0 mi Calm Calm - N/A   Clear
9:53 AM 53.1 °F - 39.9 °F 61% 30.09 in 10.0 mi Calm Calm - N/A   Clear
10:53 AM 57.9 °F - 42.1 °F 56% 30.07 in 10.0 mi WSW 3.5 mph - N/A   Clear
11:53 AM 62.1 °F - 37.9 °F 41% 30.04 in 10.0 mi SSW 8.1 mph - N/A   Clear
12:53 PM 64.0 °F - 37.0 °F 37% 29.99 in 10.0 mi SW 6.9 mph - N/A   Clear
1:53 PM 66.0 °F - 39.0 °F 37% 29.97 in 10.0 mi WSW 9.2 mph - N/A   Clear
2:53 PM 69.1 °F - 37.9 °F 32% 29.94 in 10.0 mi WSW 9.2 mph 18.4 mph N/A   Clear
3:53 PM 69.1 °F - 42.1 °F 38% 29.93 in 10.0 mi SW 12.7 mph - N/A   Clear
4:53 PM 66.0 °F - 43.0 °F 43% 29.93 in 10.0 mi SW 9.2 mph - N/A   Overcast
5:53 PM 64.9 °F - 43.0 °F 45% 29.93 in 10.0 mi WSW 8.1 mph - N/A   Overcast
6:53 PM 64.0 °F - 46.0 °F 52% 29.93 in 10.0 mi West 11.5 mph 19.6 mph N/A   Scattered Clouds
7:53 PM 61.0 °F - 46.9 °F 60% 29.95 in 10.0 mi WNW 10.4 mph - N/A   Clear
8:53 PM 55.9 °F - 44.1 °F 64% 29.96 in 10.0 mi North 4.6 mph - N/A   Clear
9:53 PM 52.0 °F - 37.0 °F 57% 29.96 in 10.0 mi NNW 5.8 mph - N/A   Clear
10:53 PM 51.1 °F - 33.1 °F 50% 29.97 in 10.0 mi NNW 6.9 mph - N/A   Clear
11:53 PM 48.9 °F - 33.1 °F 54% 29.96 in 10.0 mi NNW 6.9 mph - N/A   Clear